Earlysville, VA

1:35 PM EDT on July 28, 2016 (GMT -0400)
Charlottesville-Albemarle

Weather History for KCHO - August, 2015

Change the Weather History Date:

Sunday, August 16, 2015

  Actual Average Record
Temperature  
Mean Temperature 78 °F 74 °F  
Max Temperature 91 °F 85 °F 101 °F (1989)
Min Temperature 65 °F 64 °F 51 °F (2013)
Degree Days  
Heating Degree Days 0 0  
Month to date heating degree days 0 0  
Since 1 June heating degree days 11 12  
Since 1 July heating degree days 0 1  
Cooling Degree Days 13 9  
Month to date cooling degree days 161 156  
Year to date cooling degree days 1006 786  
Since 1 June cooling degree days 829 700  
Growing Degree Days 28 (Base 50)    
Moisture  
Dew Point 66 °F    
Average Humidity 69    
Maximum Humidity 93    
Minimum Humidity 44    
Precipitation  
Precipitation 0.00 in 0.12 in 1.48 in (2007)
Month to date precipitation 0.53 2.14  
Year to date precipitation 25.43 26.66  
Sea Level Pressure  
Sea Level Pressure 30.14 in    
Wind  
Wind Speed 2 mph (SW)    
Max Wind Speed 9 mph    
Max Gust Speed 14 mph    
Visibility 6 miles    
Events      
T = Trace of Precipitation, MM = Missing Value Source: NWS Daily Summary

Daily Weather History Graph

Daily Weather History Graph

Search for Another Location

Airport or City:

Trip Planner

Search our weather history database for the weather conditions in past years. The results will help you decide how hot, cold, wet, or windy it might be!

Date:

Astronomy

Aug. 16, 2015 Rise Set
Actual Time 6:29 AM EDT 8:06 PM EDT
Civil Twilight 6:01 AM EDT 8:34 PM EDT
Nautical Twilight 5:27 AM EDT 9:07 PM EDT
Astronomical Twilight 4:51 AM EDT 9:43 PM EDT
Moon 8:20 AM EDT (8/16) 9:05 PM EDT (8/16)
Length of Visible Light 14h 32m
Length of Day
13h 36m
Waxing Crescent, 4% of the Moon is Illuminated
Aug 16
Waxing Crescent
Aug 22
First Quarter
Aug 29
Full
Sep 5
Last Quarter
Sep 13
New

Hourly Weather History & Observations

Time (EDT) Temp. Heat Index Dew Point Humidity Pressure Visibility Wind Dir Wind Speed Gust Speed Precip Events Conditions
12:53 AM 71.1 °F - 68.0 °F 90% 30.16 in 9.0 mi Calm Calm - N/A   Clear
1:53 AM 70.0 °F - 66.9 °F 90% 30.15 in 6.0 mi Calm Calm - N/A   Clear
2:53 AM 69.1 °F - 66.9 °F 93% 30.14 in 4.0 mi Calm Calm - N/A   Clear
3:25 AM 69.1 °F - 66.9 °F 93% 30.16 in 2.5 mi WSW 3.5 mph - N/A   Clear
3:33 AM 69.1 °F - 66.9 °F 93% 30.16 in 3.0 mi West 3.5 mph - N/A   Clear
3:42 AM 68.0 °F - 66.0 °F 93% 30.15 in 2.5 mi Calm Calm - N/A   Clear
3:50 AM 69.8 °F - 66.2 °F 88% 30.15 in 4.0 mi West 4.6 mph - N/A   Clear
3:53 AM 69.1 °F - 66.9 °F 93% 30.13 in 4.0 mi West 3.5 mph - N/A   Clear
4:53 AM 68.0 °F - 66.0 °F 93% 30.13 in 5.0 mi WSW 3.5 mph - N/A   Clear
5:53 AM 68.0 °F - 66.0 °F 93% 30.13 in 4.0 mi Calm Calm - N/A   Clear
6:07 AM 66.9 °F - 64.9 °F 93% 30.15 in 3.0 mi Calm Calm - N/A   Scattered Clouds
6:11 AM 66.9 °F - 66.0 °F 97% 30.15 in 2.5 mi Calm Calm - N/A   Mostly Cloudy
6:19 AM 66.0 °F - 64.0 °F 93% 30.15 in 1.0 mi Calm Calm - N/A   Mist
6:53 AM 66.0 °F - 64.9 °F 96% 30.14 in 1.0 mi SSW 4.6 mph - N/A   Mist
7:19 AM 66.9 °F - 64.9 °F 93% 30.17 in 1.0 mi Calm Calm - N/A   Clear
7:31 AM 66.9 °F - 64.9 °F 93% 30.17 in 3.0 mi Calm Calm - N/A   Clear
7:42 AM 66.9 °F - 64.9 °F 93% 30.17 in 3.0 mi Calm Calm - N/A   Scattered Clouds
7:46 AM 66.9 °F - 66.0 °F 97% 30.17 in 2.0 mi Calm Calm - N/A   Mostly Cloudy
7:53 AM 68.0 °F - 66.0 °F 93% 30.16 in 2.0 mi Calm Calm - N/A   Mostly Cloudy
8:02 AM 69.1 °F - 66.9 °F 93% 30.17 in 3.0 mi Calm Calm - N/A   Scattered Clouds
8:53 AM 72.0 °F - 68.0 °F 87% 30.16 in 7.0 mi WSW 3.5 mph - N/A   Clear
9:53 AM 78.1 °F - 69.1 °F 74% 30.15 in 10.0 mi SW 3.5 mph - N/A   Clear
10:53 AM 82.0 °F 84.9 °F 68.0 °F 62% 30.15 in 10.0 mi Variable 3.5 mph - N/A   Clear
11:53 AM 87.1 °F 89.2 °F 66.0 °F 49% 30.14 in 10.0 mi Calm Calm - N/A   Clear
12:53 PM 87.1 °F 89.2 °F 66.0 °F 49% 30.14 in 10.0 mi Variable 3.5 mph - N/A   Scattered Clouds
1:53 PM 90.0 °F 91.7 °F 64.9 °F 43% 30.14 in 10.0 mi ENE 3.5 mph - N/A   Clear
2:53 PM 82.9 °F 85.0 °F 66.0 °F 56% 30.13 in 10.0 mi North 5.8 mph - N/A   Clear
3:53 PM 88.0 °F 91.4 °F 68.0 °F 51% 30.10 in 10.0 mi NNE 4.6 mph - N/A   Clear
4:53 PM 90.0 °F 91.7 °F 64.9 °F 43% 30.09 in 10.0 mi Variable 3.5 mph - N/A   Clear
5:53 PM 89.1 °F 91.0 °F 64.9 °F 45% 30.09 in 10.0 mi South 6.9 mph - N/A   Partly Cloudy
6:53 PM 87.1 °F 88.9 °F 64.9 °F 48% 30.09 in 10.0 mi SSE 4.6 mph - N/A   Clear
7:53 PM 81.0 °F 83.8 °F 68.0 °F 65% 30.09 in 10.0 mi Calm Calm - N/A   Clear
8:53 PM 80.1 °F 82.3 °F 66.9 °F 64% 30.10 in 10.0 mi South 3.5 mph - N/A   Clear
9:53 PM 75.0 °F - 68.0 °F 79% 30.11 in 10.0 mi Calm Calm - N/A   Clear
10:53 PM 75.0 °F - 70.0 °F 84% 30.11 in 10.0 mi Calm Calm - N/A   Clear
11:53 PM 73.0 °F - 70.0 °F 90% 30.12 in 8.0 mi Calm Calm - N/A   Clear